User: anonymous   Login
Location: Brno
(49.2000°N, 16.6330°E)
Time: 03:03:23
(UTC+02:00)
Language:

RESURS DK-1 - Orbit

View from above orbital plane
View from above orbital plane
View from above satellite
View from above satellite

Ground track
Ground track

The orbit data is extracted from the following two-line orbital elements,

1 29228U 06021A   15088.81456345  .00001230  00000-0  10271-3 0  9990
2 29228 069.9400 358.7994 0004487 185.2745 230.9313 15.01348727486437
Epoch (UTC): 29 March 2015 19:32:58
Eccentricity: 0.0004487
inclination: 69.9400°
perigee height: 559 km
apogee height: 566 km
right ascension of ascending node: 358.7994°
argument of perigee: 185.2745°
revolutions per day: 15.01348727
mean anomaly at epoch: 230.9313°
orbit number at epoch: 48643

The dashed part of the orbit path shows where the satellite is in the earth's shadow,  

DLR